TimeCST,TemperatureF,Dew PointF,Humidity,Sea Level PressureIn,VisibilityMPH,Wind Direction,Wind SpeedMPH,Gust SpeedMPH,PrecipitationIn,Events,Conditions,WindDirDegrees,DateUTC
12:53 AM,27.0,18.0,69,30.28,10.0,NNW,13.8,24.2,N/A,,Overcast,340,2014-01-06 06:53:00
1:53 AM,26.1,16.0,66,30.32,10.0,NNW,15.0,25.3,N/A,,Overcast,340,2014-01-06 07:53:00
2:53 AM,25.0,15.1,66,30.35,10.0,NNW,12.7,25.3,N/A,,Overcast,340,2014-01-06 08:53:00
3:15 AM,24.8,14.0,64,30.38,10.0,North,11.5,23.0,N/A,,Scattered Clouds,350,2014-01-06 09:15:00
3:44 AM,24.8,14.0,64,30.39,10.0,NNW,11.5,23.0,N/A,,Mostly Cloudy,330,2014-01-06 09:44:00
3:53 AM,23.0,12.0,63,30.39,10.0,North,15.0,27.6,N/A,,Mostly Cloudy,350,2014-01-06 09:53:00
4:04 AM,21.2,12.2,68,30.40,10.0,NNW,8.1,17.3,N/A,,Scattered Clouds,330,2014-01-06 10:04:00
4:53 AM,21.0,9.0,60,30.41,10.0,NNW,8.1,19.6,N/A,,Clear,340,2014-01-06 10:53:00
5:53 AM,19.9,8.1,60,30.44,10.0,NNW,11.5,-,N/A,,Clear,340,2014-01-06 11:53:00
6:53 AM,19.0,5.0,54,30.48,10.0,NNW,13.8,23.0,N/A,,Clear,340,2014-01-06 12:53:00
7:53 AM,19.0,1.0,46,30.51,10.0,NNW,11.5,26.5,N/A,,Clear,340,2014-01-06 13:53:00
8:53 AM,21.0,1.9,44,30.56,10.0,Variable,6.9,20.7,N/A,,Clear,0,2014-01-06 14:53:00
9:53 AM,21.9,3.0,44,30.57,10.0,NNW,10.4,20.7,N/A,,Clear,340,2014-01-06 15:53:00
10:53 AM,24.1,3.9,42,30.56,10.0,NW,11.5,23.0,N/A,,Clear,320,2014-01-06 16:53:00
11:53 AM,24.1,1.0,37,30.53,10.0,NNW,12.7,25.3,N/A,,Clear,330,2014-01-06 17:53:00
12:53 PM,24.1,1.0,37,30.52,10.0,NW,15.0,23.0,N/A,,Clear,320,2014-01-06 18:53:00
1:53 PM,25.0,1.9,37,30.52,10.0,NW,13.8,24.2,N/A,,Clear,320,2014-01-06 19:53:00
2:53 PM,26.1,1.9,35,30.53,10.0,NNW,11.5,23.0,N/A,,Clear,330,2014-01-06 20:53:00
3:53 PM,25.0,1.9,37,30.54,10.0,NW,11.5,-,N/A,,Clear,310,2014-01-06 21:53:00
4:53 PM,23.0,1.9,40,30.55,10.0,NNW,6.9,-,N/A,,Clear,340,2014-01-06 22:53:00
5:53 PM,21.9,1.9,42,30.56,10.0,NNW,6.9,-,N/A,,Clear,340,2014-01-06 23:53:00
6:53 PM,21.0,3.0,46,30.58,10.0,NNW,3.5,-,N/A,,Clear,330,2014-01-07 00:53:00
7:53 PM,19.9,3.9,50,30.60,10.0,Calm,Calm,-,N/A,,Clear,0,2014-01-07 01:53:00
8:53 PM,19.9,3.9,50,30.60,10.0,Calm,Calm,-,N/A,,Clear,0,2014-01-07 02:53:00
9:53 PM,18.0,7.0,62,30.61,10.0,Calm,Calm,-,N/A,,Clear,0,2014-01-07 03:53:00
10:53 PM,17.1,8.1,68,30.59,10.0,North,3.5,-,N/A,,Clear,10,2014-01-07 04:53:00
11:53 PM,17.1,8.1,68,30.59,10.0,Calm,Calm,-,N/A,,Clear,0,2014-01-07 05:53:00